sat.trackr.live / text

‹ back to catalog

STARLINK-2495

NORAD 48325 · 2021-036BB

PAYLOAD ACTIVE UNKNOWN

§ Identity

Operator
Country
US
Launch date
2021-04-29
Launch site
AFETR
Launch vehicle
Mass (kg)
RCS (m²)

Purposes: comms

External: N2YO · Heavens-Above · Gunter

§ Orbital elements

Epoch: 2026-09-19T17:46:10.503840Z

Period
94.01 min
Inclination
53.1603°
Eccentricity
0.0001687
Mean motion
15.31699998 rev/d
Perigee alt
469.6 km
Apogee alt
471.9 km
Semi-major
6,848.9 km
B*
1.1501e-5
RAAN
278.0930°
Arg perigee
73.4696°
Mean anomaly
286.6491°
Rev number
29,777

§ Raw data

STARLINK-24951 48325U 21036BB  26262.74039935 -.00000009  00000+0  11501-4 0  99932 48325  53.1603 278.0930 0001687  73.4696 286.6491 15.31699998297776

JSON: /api/v1/satellites/48325 · /tle

For live sub-satellite position, see the globe view (requires WebGL).

§ Visibility from observer

Set your observer location to see the next 7 days of passes ≥ 10°. The values pass through the URL so the page stays shareable.

No JS? Fill the form by hand. The geolocation button needs JavaScript.